User: anonymous   Login
Location: Unspecified
(0.0000°N, 0.0000°E)
Time: 02:45:57
(UTC+01:00)
Language:

H-2A R/B - Orbit

View from above orbital plane
View from above orbital plane
View from above satellite
View from above satellite

Ground track
Ground track

The orbit data is extracted from the following two-line orbital elements,

1 28932U 06002B   17052.22300166  .00000506  00000-0  53678-4 0  9991
2 28932  98.2075 330.4516 0089687 332.2937 147.3177 14.91243982600522
Epoch (UTC): 21 February 2017 05:21:07
Eccentricity: 0.0089687
inclination: 98.2075°
perigee height: 531 km
apogee height: 656 km
right ascension of ascending node: 330.4516°
argument of perigee: 332.2937°
revolutions per day: 14.91243982
mean anomaly at epoch: 147.3177°
orbit number at epoch: 60052

The dashed part of the orbit path shows where the satellite is in the earth's shadow,  

DLR